LYEWL FOOL-FOOG

Flight info

Callsign LYEWL
Flight time 1h 13m
Altitude 2000
Route FOOL FOGR FOOG
Aircraft BE58/L-VGD/A

Departure

Time 2026-04-13 18:17
Airport Libreville Leon M'ba International Airport (FOOL)

Arrival

Time 2026-04-13 19:31
Airport Port Gentil International Airport (FOOG)
Time Latitude Longitude Altitude Speed Heading
2026-04-13 17:37 0.45825 9.41048 37 ft 0 kts 245°
2026-04-13 17:39 0.45659 9.41101 37 ft 0 kts 244°
2026-04-13 17:43 0.46308 9.40824 40 ft 0 kts 307°
2026-04-13 17:50 0.46308 9.40823 40 ft 0 kts 307°
2026-04-13 17:50 0.46301 9.40833 40 ft 0 kts 124°
2026-04-13 18:08 0.46268 9.40865 40 ft 6 kts 144°
2026-04-13 18:08 0.46253 9.40875 40 ft 0 kts 150°
2026-04-13 18:08 0.46210 9.40896 40 ft 9 kts 169°
2026-04-13 18:08 0.46155 9.40921 40 ft 8 kts 154°
2026-04-13 18:09 0.46095 9.40946 39 ft 9 kts 158°
2026-04-13 18:09 0.46032 9.40976 37 ft 10 kts 153°
2026-04-13 18:09 0.45974 9.41014 37 ft 9 kts 129°
2026-04-13 18:09 0.45920 9.41047 37 ft 8 kts 154°
2026-04-13 18:10 0.45864 9.41072 37 ft 8 kts 155°
2026-04-13 18:10 0.45815 9.41101 37 ft 7 kts 128°
2026-04-13 18:10 0.45784 9.41143 37 ft 7 kts 153°
2026-04-13 18:10 0.45735 9.41159 37 ft 7 kts 156°
2026-04-13 18:11 0.45689 9.41181 37 ft 7 kts 155°
2026-04-13 18:11 0.45645 9.41202 37 ft 6 kts 156°
2026-04-13 18:11 0.45610 9.41234 37 ft 6 kts 119°
2026-04-13 18:11 0.45605 9.41252 37 ft 0 kts 87°
2026-04-13 18:12 0.45605 9.41259 37 ft 5 kts 78°
2026-04-13 18:12 0.45625 9.41298 37 ft 1 kts 56°
2026-04-13 18:13 0.45645 9.41314 37 ft 5 kts 19°
2026-04-13 18:13 0.45687 9.41311 37 ft 0 kts 333°
2026-04-13 18:15 0.45688 9.41311 37 ft 0 kts 333°
2026-04-13 18:16 0.45765 9.41276 37 ft 51 kts 335°
2026-04-13 18:16 0.46320 9.41004 40 ft 114 kts 334°
2026-04-13 18:16 0.47083 9.40638 264 ft 121 kts 333°
2026-04-13 18:17 0.47843 9.40265 594 ft 118 kts 333°
2026-04-13 18:17 0.48321 9.39716 1058 ft 104 kts 276°
2026-04-13 18:17 0.48104 9.38983 1261 ft 120 kts 225°
2026-04-13 18:17 0.47314 9.38862 1658 ft 125 kts 170°
2026-04-13 18:18 0.46391 9.39056 1916 ft 142 kts 163°
2026-04-13 18:18 0.45380 9.39442 2070 ft 159 kts 154°
2026-04-13 18:18 0.44402 9.39931 2473 ft 151 kts 150°
2026-04-13 18:18 0.43516 9.40521 2541 ft 154 kts 141°
2026-04-13 18:19 0.42786 9.41311 2575 ft 158 kts 123°
2026-04-13 18:19 0.42212 9.42271 2629 ft 158 kts 120°
2026-04-13 18:19 0.41768 9.43266 2780 ft 152 kts 97°
2026-04-13 18:19 0.41869 9.44284 2985 ft 146 kts 83°
2026-04-13 18:20 0.42006 9.45335 2975 ft 151 kts 85°
2026-04-13 18:20 0.41831 9.46377 2988 ft 153 kts 110°
2026-04-13 18:20 0.41327 9.47301 3086 ft 149 kts 124°
2026-04-13 18:20 0.40669 9.48102 3113 ft 152 kts 135°
2026-04-13 18:21 0.39819 9.48739 3157 ft 150 kts 147°
2026-04-13 18:21 0.38929 9.49366 3071 ft 155 kts 140°
2026-04-13 18:21 0.38117 9.50030 3201 ft 147 kts 139°
2026-04-13 18:21 0.37368 9.50751 3131 ft 153 kts 133°
2026-04-13 18:22 0.36595 9.51534 3079 ft 155 kts 136°
2026-04-13 18:22 0.35752 9.52239 2941 ft 162 kts 144°
2026-04-13 18:22 0.34870 9.52890 3007 ft 155 kts 141°
2026-04-13 18:22 0.33976 9.53571 2873 ft 162 kts 141°
2026-04-13 18:23 0.33115 9.54326 2781 ft 163 kts 134°
2026-04-13 18:23 0.32349 9.55168 2683 ft 165 kts 132°
2026-04-13 18:23 0.31512 9.55910 2738 ft 157 kts 139°
2026-04-13 18:23 0.30751 9.56693 2702 ft 158 kts 134°
2026-04-13 18:24 0.29907 9.57477 2513 ft 165 kts 136°
2026-04-13 18:24 0.29082 9.58244 2538 ft 160 kts 136°
2026-04-13 18:24 0.28288 9.59031 2461 ft 161 kts 134°
2026-04-13 18:24 0.27398 9.59736 2395 ft 162 kts 145°
2026-04-13 18:25 0.26410 9.60285 2381 ft 159 kts 156°
2026-04-13 18:25 0.25353 9.60614 2385 ft 156 kts 167°
2026-04-13 18:25 0.24272 9.60849 2331 ft 158 kts 167°
2026-04-13 18:25 0.23187 9.61094 2300 ft 157 kts 165°
2026-04-13 18:26 0.22131 9.61382 2296 ft 156 kts 162°
2026-04-13 18:26 0.21108 9.61729 2307 ft 154 kts 160°
2026-04-13 18:26 0.20083 9.62079 2276 ft 155 kts 160°
2026-04-13 18:26 0.19070 9.62452 2302 ft 152 kts 158°
2026-04-13 18:27 0.18142 9.62910 2398 ft 146 kts 150°
2026-04-13 18:27 0.17244 9.63428 2456 ft 144 kts 146°
2026-04-13 18:27 0.16402 9.64024 2343 ft 154 kts 141°
2026-04-13 18:27 0.15562 9.64712 2357 ft 152 kts 142°
2026-04-13 18:28 0.14672 9.65283 2371 ft 151 kts 152°
2026-04-13 18:28 0.13716 9.65711 2376 ft 151 kts 157°
2026-04-13 18:28 0.12724 9.66132 2399 ft 149 kts 154°
2026-04-13 18:28 0.11806 9.66606 2400 ft 151 kts 149°
2026-04-13 18:29 0.10882 9.67147 2329 ft 156 kts 149°
2026-04-13 18:29 0.09917 9.67715 2186 ft 162 kts 147°
2026-04-13 18:29 0.09008 9.68343 2258 ft 154 kts 142°
2026-04-13 18:29 0.08159 9.68990 2360 ft 147 kts 141°
2026-04-13 18:30 0.07333 9.69630 2334 ft 150 kts 146°
2026-04-13 18:30 0.06429 9.70147 2363 ft 149 kts 152°
2026-04-13 18:30 0.05490 9.70582 2425 ft 146 kts 159°
2026-04-13 18:30 0.04472 9.70831 2378 ft 151 kts 172°
2026-04-13 18:31 0.03497 9.71133 2488 ft 143 kts 145°
2026-04-13 18:31 0.02808 9.71850 2531 ft 143 kts 130°
2026-04-13 18:31 0.02026 9.72551 2460 ft 158 kts 141°
2026-04-13 18:31 0.01134 9.73236 2531 ft 162 kts 142°
2026-04-13 18:32 0.00221 9.73941 2480 ft 172 kts 140°
2026-04-13 18:32 -0.00740 9.74715 2437 ft 176 kts 142°
2026-04-13 18:32 -0.01710 9.75487 2477 ft 175 kts 140°
2026-04-13 18:32 -0.02668 9.76277 2495 ft 175 kts 140°
2026-04-13 18:33 -0.03581 9.77063 2545 ft 175 kts 137°
2026-04-13 18:33 -0.04526 9.77867 2547 ft 176 kts 141°
2026-04-13 18:33 -0.05469 9.78654 2544 ft 177 kts 139°
2026-04-13 18:34 -0.07324 9.80335 2528 ft 178 kts 135°
2026-04-13 18:34 -0.08178 9.81244 2518 ft 178 kts 131°
2026-04-13 18:34 -0.09074 9.82083 2526 ft 176 kts 141°
2026-04-13 18:34 -0.10088 9.82768 2511 ft 175 kts 148°
2026-04-13 18:35 -0.11157 9.83417 2464 ft 177 kts 147°
2026-04-13 18:35 -0.12197 9.84088 2436 ft 177 kts 147°
2026-04-13 18:35 -0.13246 9.84738 2424 ft 176 kts 147°
2026-04-13 18:35 -0.14283 9.85418 2420 ft 175 kts 145°
2026-04-13 18:36 -0.15270 9.86118 2441 ft 173 kts 142°
2026-04-13 18:36 -0.16234 9.86874 2357 ft 177 kts 140°
2026-04-13 18:36 -0.17196 9.87662 2316 ft 177 kts 145°
2026-04-13 18:36 -0.18275 9.88291 2262 ft 178 kts 151°
2026-04-13 18:37 -0.19013 9.88661 2275 ft 176 kts 154°
2026-04-13 18:37 -0.20419 9.89462 2379 ft 169 kts 143°
2026-04-13 18:37 -0.21346 9.90188 2434 ft 167 kts 141°
2026-04-13 18:37 -0.22269 9.90925 2452 ft 169 kts 141°
2026-04-13 18:38 -0.23244 9.91614 2447 ft 171 kts 146°
2026-04-13 18:38 -0.24247 9.92267 2422 ft 173 kts 147°
2026-04-13 18:38 -0.25287 9.92917 2352 ft 176 kts 147°
2026-04-13 18:38 -0.26332 9.93587 2302 ft 177 kts 146°
2026-04-13 18:39 -0.27359 9.94287 2323 ft 174 kts 144°
2026-04-13 18:39 -0.28360 9.94994 2257 ft 177 kts 142°
2026-04-13 18:39 -0.29281 9.95830 2249 ft 176 kts 134°
2026-04-13 18:39 -0.30185 9.96651 2286 ft 172 kts 140°
2026-04-13 18:40 -0.31157 9.97315 2391 ft 167 kts 148°
2026-04-13 18:40 -0.32148 9.97985 2343 ft 172 kts 142°
2026-04-13 18:40 -0.33116 9.98719 2280 ft 176 kts 143°
2026-04-13 18:40 -0.34092 9.99468 2258 ft 176 kts 141°
2026-04-13 18:41 -0.35040 10.00233 2307 ft 172 kts 139°
2026-04-13 18:41 -0.35993 10.00972 2339 ft 171 kts 142°
2026-04-13 18:41 -0.36959 10.01680 2363 ft 170 kts 146°
2026-04-13 18:41 -0.37963 10.02340 2285 ft 176 kts 146°
2026-04-13 18:42 -0.38981 10.03032 2318 ft 173 kts 145°
2026-04-13 18:42 -0.39968 10.03692 2383 ft 170 kts 144°
2026-04-13 18:42 -0.40923 10.04385 2467 ft 166 kts 142°
2026-04-13 18:42 -0.41815 10.05103 2554 ft 165 kts 139°
2026-04-13 18:43 -0.42743 10.05847 2544 ft 168 kts 140°
2026-04-13 18:43 -0.43667 10.06626 2389 ft 178 kts 138°
2026-04-13 18:43 -0.44616 10.07437 2332 ft 179 kts 140°
2026-04-13 18:43 -0.45562 10.08266 2247 ft 180 kts 137°
2026-04-13 18:44 -0.46486 10.09139 2263 ft 176 kts 134°
2026-04-13 18:44 -0.47318 10.10007 2302 ft 173 kts 131°
2026-04-13 18:44 -0.48144 10.10922 2304 ft 172 kts 134°
2026-04-13 18:44 -0.49008 10.11766 2255 ft 176 kts 135°
2026-04-13 18:45 -0.49902 10.12652 2126 ft 181 kts 134°
2026-04-13 18:45 -0.50788 10.13561 2056 ft 181 kts 133°
2026-04-13 18:45 -0.51661 10.14435 2069 ft 173 kts 136°
2026-04-13 18:45 -0.52563 10.15256 1956 ft 173 kts 139°
2026-04-13 18:46 -0.53495 10.16047 1828 ft 174 kts 138°
2026-04-13 18:46 -0.54392 10.16862 1701 ft 174 kts 137°
2026-04-13 18:46 -0.55303 10.17696 1554 ft 175 kts 136°
2026-04-13 18:46 -0.56131 10.18542 1361 ft 163 kts 132°
2026-04-13 18:47 -0.56806 10.19347 1246 ft 141 kts 128°
2026-04-13 18:47 -0.57398 10.20086 1106 ft 132 kts 127°
2026-04-13 18:47 -0.57949 10.20802 1023 ft 128 kts 125°
2026-04-13 18:47 -0.58468 10.21526 861 ft 128 kts 127°
2026-04-13 18:48 -0.59033 10.22208 826 ft 125 kts 136°
2026-04-13 18:48 -0.59685 10.22747 846 ft 120 kts 139°
2026-04-13 18:48 -0.60354 10.23305 766 ft 122 kts 142°
2026-04-13 18:48 -0.61030 10.23820 726 ft 123 kts 141°
2026-04-13 18:49 -0.61675 10.24365 736 ft 116 kts 137°
2026-04-13 18:49 -0.62233 10.24910 727 ft 105 kts 132°
2026-04-13 18:49 -0.62728 10.25454 630 ft 107 kts 130°
2026-04-13 18:49 -0.63191 10.26042 742 ft 107 kts 125°
2026-04-13 18:50 -0.63641 10.26643 840 ft 108 kts 128°
2026-04-13 18:50 -0.64141 10.27177 988 ft 103 kts 136°
2026-04-13 18:50 -0.64717 10.27609 1087 ft 104 kts 150°
2026-04-13 18:50 -0.65394 10.27928 1107 ft 111 kts 159°
2026-04-13 18:51 -0.66158 10.28073 1120 ft 110 kts 176°
2026-04-13 18:51 -0.66877 10.27919 1003 ft 104 kts 216°
2026-04-13 18:51 -0.67422 10.27424 823 ft 107 kts 225°
2026-04-13 18:51 -0.67946 10.26889 668 ft 106 kts 226°
2026-04-13 18:52 -0.68461 10.26371 550 ft 104 kts 224°
2026-04-13 18:52 -0.69001 10.25882 390 ft 102 kts 220°
2026-04-13 18:52 -0.69512 10.25406 257 ft 98 kts 226°
2026-04-13 18:52 -0.70010 10.24934 114 ft 96 kts 220°
2026-04-13 18:53 -0.70476 10.24501 90 ft 86 kts 221°
2026-04-13 18:53 -0.70995 10.24025 314 ft 105 kts 223°
2026-04-13 18:53 -0.71442 10.23505 840 ft 89 kts 251°
2026-04-13 18:53 -0.71527 10.22869 1285 ft 92 kts 258°
2026-04-13 18:54 -0.71680 10.22392 1805 ft 84 kts 242°
2026-04-13 18:54 -0.71865 10.21706 2006 ft 105 kts 259°
2026-04-13 18:54 -0.72086 10.21031 2353 ft 109 kts 248°
2026-04-13 18:54 -0.72253 10.20271 2700 ft 109 kts 269°
2026-04-13 18:55 -0.72207 10.19446 2715 ft 133 kts 270°
2026-04-13 18:55 -0.72214 10.18515 2830 ft 136 kts 266°
2026-04-13 18:55 -0.72155 10.17539 2864 ft 144 kts 277°
2026-04-13 18:55 -0.72009 10.16547 2911 ft 148 kts 279°
2026-04-13 18:56 -0.71834 10.15507 2946 ft 151 kts 277°
2026-04-13 18:56 -0.71710 10.14447 3003 ft 155 kts 274°
2026-04-13 18:56 -0.71691 10.13337 2982 ft 162 kts 269°
2026-04-13 18:56 -0.71681 10.12192 3001 ft 165 kts 270°
2026-04-13 18:57 -0.71655 10.11038 3016 ft 167 kts 272°
2026-04-13 18:57 -0.71587 10.09862 2990 ft 169 kts 273°
2026-04-13 18:57 -0.71514 10.08680 2987 ft 169 kts 272°
2026-04-13 18:57 -0.71501 10.07504 3029 ft 167 kts 271°
2026-04-13 18:58 -0.71426 10.06321 2924 ft 171 kts 274°
2026-04-13 18:58 -0.71339 10.05140 2906 ft 170 kts 274°
2026-04-13 18:58 -0.71263 10.03955 2907 ft 168 kts 272°
2026-04-13 18:58 -0.71208 10.02767 2847 ft 170 kts 272°
2026-04-13 18:59 -0.71171 10.01590 2865 ft 167 kts 271°
2026-04-13 18:59 -0.71161 10.00421 2852 ft 167 kts 269°
2026-04-13 18:59 -0.71196 9.99264 2844 ft 167 kts 266°
2026-04-13 18:59 -0.71243 9.98107 2833 ft 167 kts 268°
2026-04-13 19:00 -0.71279 9.97316 2786 ft 169 kts 266°
2026-04-13 19:00 -0.71452 9.95779 2818 ft 166 kts 264°
2026-04-13 19:00 -0.71441 9.94619 2825 ft 165 kts 276°
2026-04-13 19:00 -0.71254 9.93483 2853 ft 163 kts 275°
2026-04-13 19:01 -0.71195 9.92355 2891 ft 161 kts 270°
2026-04-13 19:01 -0.71163 9.91231 2926 ft 161 kts 273°
2026-04-13 19:01 -0.71118 9.90090 2896 ft 164 kts 271°
2026-04-13 19:01 -0.71067 9.88918 2833 ft 167 kts 272°
2026-04-13 19:02 -0.71060 9.87773 2928 ft 161 kts 269°
2026-04-13 19:02 -0.71052 9.86655 2915 ft 163 kts 271°
2026-04-13 19:02 -0.70996 9.85502 2910 ft 164 kts 271°
2026-04-13 19:02 -0.71004 9.84347 2902 ft 165 kts 266°
2026-04-13 19:03 -0.71024 9.83180 2820 ft 169 kts 271°
2026-04-13 19:03 -0.71013 9.82008 2836 ft 167 kts 271°
2026-04-13 19:03 -0.70939 9.80852 2847 ft 166 kts 273°
2026-04-13 19:03 -0.70878 9.79670 2762 ft 170 kts 272°
2026-04-13 19:04 -0.70859 9.78500 2721 ft 170 kts 269°
2026-04-13 19:04 -0.70890 9.77308 2700 ft 169 kts 267°
2026-04-13 19:04 -0.70902 9.76123 2685 ft 168 kts 270°
2026-04-13 19:04 -0.70908 9.74939 2612 ft 171 kts 268°
2026-04-13 19:05 -0.70956 9.73757 2595 ft 170 kts 268°
2026-04-13 19:05 -0.70998 9.72573 2613 ft 167 kts 267°
2026-04-13 19:05 -0.71041 9.71404 2580 ft 168 kts 270°
2026-04-13 19:05 -0.70962 9.70242 2559 ft 168 kts 274°
2026-04-13 19:06 -0.70904 9.69076 2538 ft 168 kts 271°
2026-04-13 19:06 -0.70877 9.67911 2509 ft 168 kts 270°
2026-04-13 19:06 -0.70886 9.66727 2494 ft 168 kts 268°
2026-04-13 19:06 -0.70902 9.65550 2493 ft 167 kts 270°
2026-04-13 19:07 -0.70880 9.64395 2461 ft 168 kts 270°
2026-04-13 19:07 -0.70871 9.63223 2451 ft 167 kts 271°
2026-04-13 19:07 -0.70837 9.62053 2446 ft 167 kts 271°
2026-04-13 19:07 -0.70838 9.60878 2404 ft 168 kts 269°
2026-04-13 19:08 -0.70893 9.59708 2369 ft 168 kts 266°
2026-04-13 19:08 -0.70973 9.58544 2414 ft 164 kts 265°
2026-04-13 19:08 -0.70999 9.57405 2493 ft 160 kts 268°
2026-04-13 19:08 -0.71018 9.56286 2472 ft 163 kts 268°
2026-04-13 19:09 -0.71052 9.55133 2436 ft 165 kts 269°
2026-04-13 19:09 -0.71059 9.53962 2425 ft 166 kts 268°
2026-04-13 19:09 -0.71104 9.52818 2471 ft 163 kts 267°
2026-04-13 19:09 -0.71140 9.51678 2491 ft 163 kts 269°
2026-04-13 19:10 -0.71149 9.50530 2483 ft 164 kts 269°
2026-04-13 19:10 -0.71187 9.49375 2424 ft 167 kts 267°
2026-04-13 19:10 -0.71164 9.48193 2402 ft 168 kts 271°
2026-04-13 19:10 -0.71178 9.47020 2369 ft 167 kts 267°
2026-04-13 19:11 -0.71231 9.45874 2352 ft 163 kts 267°
2026-04-13 19:11 -0.71305 9.44731 2324 ft 161 kts 266°
2026-04-13 19:11 -0.71349 9.43626 2353 ft 157 kts 269°
2026-04-13 19:11 -0.71303 9.42539 2359 ft 155 kts 274°
2026-04-13 19:12 -0.71263 9.41447 2341 ft 155 kts 270°
2026-04-13 19:12 -0.71263 9.40346 2329 ft 155 kts 269°
2026-04-13 19:12 -0.71287 9.39273 2369 ft 152 kts 268°
2026-04-13 19:12 -0.71285 9.38204 2403 ft 150 kts 273°
2026-04-13 19:13 -0.71178 9.37159 2394 ft 152 kts 275°
2026-04-13 19:13 -0.71062 9.36094 2405 ft 153 kts 276°
2026-04-13 19:13 -0.70968 9.35035 2392 ft 156 kts 271°
2026-04-13 19:13 -0.70999 9.33947 2390 ft 156 kts 265°
2026-04-13 19:14 -0.71109 9.32849 2389 ft 157 kts 264°
2026-04-13 19:14 -0.71199 9.31767 2427 ft 155 kts 264°
2026-04-13 19:14 -0.71297 9.30692 2450 ft 154 kts 264°
2026-04-13 19:14 -0.71271 9.29608 2393 ft 159 kts 274°
2026-04-13 19:15 -0.71165 9.28469 2313 ft 162 kts 274°
2026-04-13 19:15 -0.71144 9.27390 2539 ft 147 kts 262°
2026-04-13 19:15 -0.71298 9.26352 2499 ft 154 kts 265°
2026-04-13 19:15 -0.71308 9.25273 2449 ft 158 kts 271°
2026-04-13 19:16 -0.71245 9.24167 2431 ft 159 kts 273°
2026-04-13 19:16 -0.71144 9.23076 2468 ft 156 kts 276°
2026-04-13 19:16 -0.71017 9.21977 2428 ft 159 kts 275°
2026-04-13 19:16 -0.70903 9.20874 2414 ft 159 kts 276°
2026-04-13 19:17 -0.70779 9.19761 2400 ft 159 kts 276°
2026-04-13 19:17 -0.70645 9.18660 2431 ft 157 kts 277°
2026-04-13 19:17 -0.70392 9.17605 2448 ft 156 kts 288°
2026-04-13 19:17 -0.69924 9.16609 2397 ft 160 kts 297°
2026-04-13 19:18 -0.69383 9.15604 2284 ft 164 kts 298°
2026-04-13 19:18 -0.68841 9.14603 2253 ft 158 kts 298°
2026-04-13 19:18 -0.68302 9.13630 2105 ft 161 kts 297°
2026-04-13 19:18 -0.67789 9.12652 2018 ft 158 kts 295°
2026-04-13 19:19 -0.67416 9.11623 1963 ft 154 kts 282°
2026-04-13 19:19 -0.67205 9.10571 1964 ft 148 kts 279°
2026-04-13 19:19 -0.67054 9.09555 1945 ft 148 kts 276°
2026-04-13 19:19 -0.66923 9.08528 1887 ft 151 kts 275°
2026-04-13 19:20 -0.66835 9.07464 1802 ft 155 kts 273°
2026-04-13 19:20 -0.66797 9.06366 1700 ft 158 kts 268°
2026-04-13 19:20 -0.66934 9.05286 1647 ft 158 kts 259°
2026-04-13 19:20 -0.67146 9.04226 1650 ft 153 kts 260°
2026-04-13 19:21 -0.67247 9.03153 1580 ft 155 kts 268°
2026-04-13 19:21 -0.67183 9.02107 1707 ft 145 kts 276°
2026-04-13 19:21 -0.67035 9.01081 1626 ft 150 kts 273°
2026-04-13 19:21 -0.67036 9.00043 1677 ft 146 kts 266°
2026-04-13 19:22 -0.67083 8.99011 1659 ft 149 kts 267°
2026-04-13 19:22 -0.67108 8.97966 1650 ft 150 kts 268°
2026-04-13 19:22 -0.67175 8.96949 1738 ft 144 kts 265°
2026-04-13 19:22 -0.67217 8.95940 1730 ft 147 kts 272°
2026-04-13 19:23 -0.67003 8.94918 1666 ft 151 kts 286°
2026-04-13 19:23 -0.66732 8.93895 1675 ft 151 kts 282°
2026-04-13 19:23 -0.66530 8.92882 1746 ft 145 kts 279°
2026-04-13 19:23 -0.66360 8.91906 1852 ft 141 kts 279°
2026-04-13 19:24 -0.66206 8.90931 1869 ft 143 kts 277°
2026-04-13 19:24 -0.66082 8.89916 1802 ft 150 kts 276°
2026-04-13 19:24 -0.65995 8.88879 1791 ft 151 kts 274°
2026-04-13 19:24 -0.65976 8.87824 1778 ft 152 kts 272°
2026-04-13 19:25 -0.65866 8.86769 1773 ft 151 kts 282°
2026-04-13 19:25 -0.65582 8.85771 1713 ft 137 kts 287°
2026-04-13 19:25 -0.65352 8.84932 1617 ft 113 kts 282°
2026-04-13 19:25 -0.65209 8.84180 1344 ft 107 kts 277°
2026-04-13 19:26 -0.65104 8.83441 1148 ft 109 kts 276°
2026-04-13 19:26 -0.64950 8.82726 1154 ft 100 kts 283°
2026-04-13 19:26 -0.64838 8.82076 1194 ft 92 kts 277°
2026-04-13 19:26 -0.64666 8.81427 1086 ft 100 kts 289°
2026-04-13 19:27 -0.64497 8.80769 1150 ft 98 kts 278°
2026-04-13 19:27 -0.64335 8.80072 1123 ft 106 kts 283°
2026-04-13 19:27 -0.64171 8.79326 1070 ft 108 kts 278°
2026-04-13 19:27 -0.64110 8.78596 998 ft 105 kts 269°
2026-04-13 19:28 -0.64318 8.77998 975 ft 88 kts 213°
2026-04-13 19:28 -0.64954 8.77735 754 ft 107 kts 197°
2026-04-13 19:28 -0.65690 8.77533 590 ft 111 kts 193°
2026-04-13 19:28 -0.66422 8.77359 493 ft 101 kts 192°
2026-04-13 19:29 -0.67096 8.77173 392 ft 97 kts 198°
2026-04-13 19:29 -0.67704 8.76943 410 ft 88 kts 204°
2026-04-13 19:29 -0.68255 8.76689 404 ft 85 kts 206°
2026-04-13 19:29 -0.68796 8.76424 374 ft 85 kts 202°
2026-04-13 19:30 -0.69367 8.76204 292 ft 87 kts 200°
2026-04-13 19:30 -0.69937 8.75975 195 ft 87 kts 202°
2026-04-13 19:30 -0.70496 8.75742 57 ft 85 kts 202°
2026-04-13 19:30 -0.71015 8.75517 21 ft 77 kts 203°
2026-04-13 19:31 -0.71410 8.75344 21 ft 39 kts 203°
2026-04-13 19:31 -0.71632 8.75251 21 ft 29 kts 204°
2026-04-13 19:31 -0.71774 8.75259 21 ft 14 kts 123°
2026-04-13 19:31 -0.71845 8.75293 21 ft 12 kts 201°
2026-04-13 19:32 -0.71918 8.75263 21 ft 10 kts 204°
2026-04-13 19:32 -0.71988 8.75252 20 ft 9 kts 164°
2026-04-13 19:32 -0.72033 8.75270 20 ft 6 kts 185°
2026-04-13 19:32 -0.72059 8.75263 20 ft 1 kts 206°
2026-04-13 19:33 -0.72071 8.75257 20 ft 2 kts 215°
2026-04-13 19:33 -0.72082 8.75243 21 ft 2 kts 212°
2026-04-13 19:33 -0.72104 8.75239 20 ft 3 kts 213°
2026-04-13 19:34 -0.72110 8.75210 20 ft 0 kts 294°